Home   Weather   Bergisch Gladbach   Past weeks

Flag for Germany Past Weather in Bergisch Gladbach, North Rhine-Westphalia, Germany — Yesterday and Last 2 Weeks

Now
70 °F

Broken clouds.


Feels Like: 70 °F
Forecast: 59 / 68 °F
Wind: 12 mph from South

Location: Koeln / Bonn

Current Time: Jun 28, 2017 at 12:41:38 pm

Latest Report: Jun 28, 2017 at 12:20 pm


Visibility: N/A

Pressure: 29.45 "Hg

Humidity: 83%

Dew Point: 64 °F

Location of Bergisch GladbachLocation

Past Weather in Bergisch Gladbach — Graph

°F

Bergisch Gladbach Temperature Yesterday

Maximum temperature yesterday: 73 °F (at 3:50 pm)
Minimum temperature yesterday: 59 °F (at 3:50 am)
Average temperature yesterday: 66 °F

High & Low Weather Summary for the Past Weeks

 TemperatureHumidityPressure
High99 °F (Jun 22, 2:33 pm)100% (Jun 14, 2:50 am)30.30 "Hg (Jun 14, 2:50 am)
Low48 °F (Jun 14, 4:50 am)27% (Jun 22, 2:33 pm)29.47 "Hg (Jun 28, 5:50 am)
Average70 °F64%30.00 "Hg
* Reported Jun 13 11:20 am — Jun 28 11:20 am, Bergisch Gladbach. Weather by CustomWeather, © 2017

Note: Actual official high and low records may vary slightly from our data, if they occured in-between our weather recording intervals... More about our weather records

Advertising

Bergisch Gladbach Weather History for the Previous 24 Hours

Scroll right to see more
 ConditionsComfort  
Time TempWeatherWind HumidityBarometerVisibility
11:20 am
Wed, Jun 28
68 °FLight rain. Broken clouds.10 mph88%29.47 "HgN/A
10:50 am68 °FLight rain. Broken clouds.8 mph88%29.47 "HgN/A
10:20 am66 °FLight rain. Broken clouds.8 mph94%29.47 "HgN/A
9:50 am66 °FLight rain. Partly sunny.7 mph94%29.47 "HgN/A
9:20 am66 °FPartly sunny.9 mph94%29.47 "HgN/A
8:50 am64 °FPartly sunny.7 mph94%29.47 "HgN/A
8:20 am66 °FBroken clouds.6 mph94%29.47 "HgN/A
7:50 am64 °FPartly sunny.6 mph100%29.47 "HgN/A
7:20 am64 °FLight rain. Broken clouds.7 mph94%29.47 "HgN/A
6:58 am64 °FSprinkles. Partly sunny.3 mph94%29.47 "HgN/A
6:50 am64 °FRain showers. Partly sunny.5 mph94%29.50 "HgN/A
6:20 am64 °FRain showers. Broken clouds.6 mph94%29.50 "Hg4 mi
5:50 am64 °FSprinkles. Partly sunny.7 mph94%29.47 "HgN/A
5:28 am64 °FSprinkles. Partly sunny.2 mph94%29.50 "HgN/A
5:20 am64 °FRain showers. Partly sunny.3 mph94%29.50 "HgN/A
4:50 am66 °FScattered showers. Passing clouds.8 mph88%29.50 "HgN/A
4:20 am66 °FPassing clouds.7 mph88%29.50 "HgN/A
3:50 am66 °FPassing clouds.6 mph88%29.50 "HgN/A
3:20 am64 °FPassing clouds.5 mph94%29.50 "HgN/A
2:50 am64 °FClear.5 mph94%29.53 "Hg10 mi
2:20 am63 °FClear.1 mph100%29.53 "Hg10 mi
1:50 am64 °FClear.5 mph94%29.56 "Hg10 mi
1:20 am64 °FClear.1 mph94%29.56 "Hg10 mi
12:50 am64 °FClear.2 mph94%29.59 "Hg10 mi
12:20 am64 °FClear.3 mph94%29.59 "Hg10 mi
11:50 pm
Tue, Jun 27
63 °FClear.5 mph100%29.59 "Hg10 mi
11:20 pm64 °FFog.2 mph94%29.59 "HgN/A
10:50 pm64 °FClear.1 mph94%29.59 "Hg10 mi
10:20 pm63 °FClear.2 mph100%29.62 "Hg10 mi
9:50 pm64 °FFog.2 mph94%29.62 "HgN/A
9:20 pm64 °FSunny.2 mph94%29.62 "Hg10 mi
8:50 pm64 °FPassing clouds.3 mph94%29.62 "HgN/A
8:20 pm64 °FScattered showers. Partly sunny.6 mph94%29.65 "HgN/A
8:07 pm64 °FSprinkles. Partly sunny.5 mph94%29.65 "HgN/A
7:50 pm66 °FRain showers. Broken clouds.16 mph88%29.65 "HgN/A
7:20 pm73 °FScattered showers. Broken clouds.8 mph69%29.65 "HgN/A
6:50 pm73 °FBroken clouds.8 mph69%29.65 "HgN/A
6:20 pm73 °FBroken clouds.8 mph69%29.68 "HgN/A
5:50 pm72 °FPartly sunny.3 mph73%29.68 "HgN/A
5:20 pm72 °FLight rain. Partly sunny.5 mph73%29.71 "HgN/A
4:50 pm73 °FPartly sunny.5 mph69%29.71 "HgN/A
4:20 pm73 °FPartly sunny.7 mph69%29.71 "HgN/A
3:50 pm73 °FLight rain. Partly sunny.5 mph69%29.74 "HgN/A
3:20 pm72 °FPartly sunny.7 mph73%29.74 "HgN/A
2:50 pm72 °FPassing clouds.8 mph73%29.77 "HgN/A
2:20 pm70 °FPassing clouds.6 mph78%29.77 "HgN/A
1:50 pm66 °FLight rain. Partly sunny.3 mph83%29.80 "HgN/A
1:20 pm66 °FLight rain. More clouds than sun.7 mph83%29.80 "HgN/A
12:50 pm66 °FLight rain. More clouds than sun.6 mph83%29.80 "HgN/A
12:20 pm68 °FLight rain. More clouds than sun.5 mph73%29.80 "HgN/A
Weather by CustomWeather, © 2017

See weather overviewHow to use our weather pages